User: anonymous   Login
Location: State Camp
(41.2367°N, 77.7828°W)
Time: 09:18:39
(UTC-04:00)
Language:

Cosmos 1674 Rocket - Orbit

View from above orbital plane
View from above orbital plane
View from above satellite
View from above satellite

Ground track
Ground track

The orbit data is extracted from the following two-line orbital elements,

1 15945U 85069B   17264.84748480 +.00000070 +00000-0 +54898-5 0  9991
2 15945 082.5286 042.4904 0018852 327.0097 032.9940 14.83939481714281
Epoch (UTC): 21 September 2017 20:20:22
Eccentricity: 0.0018852
inclination: 82.5286°
perigee height: 604 km
apogee height: 630 km
right ascension of ascending node: 42.4904°
argument of perigee: 327.0097°
revolutions per day: 14.83939481
mean anomaly at epoch: 32.9940°
orbit number at epoch: 71428

The dashed part of the orbit path shows where the satellite is in the earth's shadow,  

DLR